ACA686 CYYZ-CYYT

Flight info

Callsign ACA686
Flight time N/A
Altitude 33000
Route DEDKI5 OLABA Q951 SILRO Q822 TIGOR TIGOR5
Aircraft B38M/M-SDE1FGHILORVWXY/HB1

Departure

Time N/A
Airport Toronto Pearson International Airport (CYYZ)

Arrival

Time 2026-04-26 22:30
Airport St. John's International Airport (CYYT)
Time Latitude Longitude Altitude Speed Heading
2026-04-26 21:45 47.02144 -58.38903 33078 ft 396 kts 77°
2026-04-26 21:46 47.03029 -58.30942 33076 ft 396 kts 77°
2026-04-26 21:46 47.03908 -58.22978 33079 ft 396 kts 77°
2026-04-26 21:47 47.04783 -58.15000 33072 ft 396 kts 77°
2026-04-26 21:47 47.05652 -58.07026 33078 ft 396 kts 77°
2026-04-26 21:48 47.06515 -57.99046 33074 ft 396 kts 77°
2026-04-26 21:48 47.07372 -57.91071 33072 ft 396 kts 77°
2026-04-26 21:49 47.08218 -57.83147 33071 ft 395 kts 77°
2026-04-26 21:49 47.09063 -57.75179 33063 ft 395 kts 77°
2026-04-26 21:50 47.09902 -57.67214 33066 ft 394 kts 77°
2026-04-26 21:50 47.10734 -57.59253 33067 ft 395 kts 77°
2026-04-26 21:51 47.11562 -57.51283 33059 ft 395 kts 77°
2026-04-26 21:51 47.12385 -57.43304 33060 ft 395 kts 77°
2026-04-26 21:52 47.13203 -57.35318 33058 ft 395 kts 77°
2026-04-26 21:52 47.14015 -57.27325 33058 ft 396 kts 77°
2026-04-26 21:53 47.14817 -57.19379 33056 ft 396 kts 77°
2026-04-26 21:53 47.15620 -57.11372 33053 ft 396 kts 77°
2026-04-26 21:54 47.16417 -57.03356 33050 ft 396 kts 77°
2026-04-26 21:54 47.17209 -56.95341 33044 ft 396 kts 77°
2026-04-26 21:55 47.17995 -56.87319 33035 ft 397 kts 77°
2026-04-26 21:55 47.18777 -56.79285 33025 ft 397 kts 77°
2026-04-26 21:56 47.19554 -56.71245 33014 ft 397 kts 77°
2026-04-26 21:56 47.20325 -56.63196 33003 ft 397 kts 77°
2026-04-26 21:57 47.21092 -56.55143 33001 ft 398 kts 77°
2026-04-26 21:57 47.21848 -56.47131 32992 ft 398 kts 77°
2026-04-26 21:58 47.22604 -56.39061 32982 ft 398 kts 77°
2026-04-26 21:58 47.23354 -56.30989 32972 ft 398 kts 77°
2026-04-26 21:59 47.24099 -56.22909 32961 ft 399 kts 77°
2026-04-26 21:59 47.24840 -56.14816 32956 ft 399 kts 77°
2026-04-26 22:00 47.25575 -56.06712 32946 ft 399 kts 77°
2026-04-26 22:00 47.26306 -55.98600 32936 ft 400 kts 77°
2026-04-26 22:01 47.27031 -55.90478 32929 ft 400 kts 77°
2026-04-26 22:01 47.27746 -55.82406 32930 ft 400 kts 77°
2026-04-26 22:02 47.28460 -55.74277 32937 ft 395 kts 77°
2026-04-26 22:02 47.29140 -55.66464 32947 ft 369 kts 76°
2026-04-26 22:03 47.29459 -55.62785 32820 ft 356 kts 76°
2026-04-26 22:03 47.29776 -55.59124 32415 ft 367 kts 76°
2026-04-26 22:03 47.30099 -55.55361 31881 ft 372 kts 76°
2026-04-26 22:03 47.30425 -55.51560 31404 ft 374 kts 76°
2026-04-26 22:04 47.30748 -55.47767 30950 ft 372 kts 76°
2026-04-26 22:04 47.31069 -55.43988 30487 ft 369 kts 76°
2026-04-26 22:04 47.31381 -55.40287 30285 ft 358 kts 75°
2026-04-26 22:04 47.31683 -55.36701 30148 ft 347 kts 75°
2026-04-26 22:05 47.31977 -55.33209 29888 ft 345 kts 75°
2026-04-26 22:05 47.32276 -55.29638 29361 ft 355 kts 75°
2026-04-26 22:05 47.32573 -55.26060 28910 ft 359 kts 76°
2026-04-26 22:05 47.32877 -55.22393 28466 ft 361 kts 76°
2026-04-26 22:06 47.33181 -55.18720 28002 ft 361 kts 76°
2026-04-26 22:06 47.33483 -55.15047 27535 ft 360 kts 76°
2026-04-26 22:06 47.33784 -55.11377 27091 ft 360 kts 76°
2026-04-26 22:06 47.34083 -55.07719 26661 ft 359 kts 76°
2026-04-26 22:07 47.34380 -55.04073 26236 ft 358 kts 76°
2026-04-26 22:07 47.34674 -55.00433 25952 ft 358 kts 76°
2026-04-26 22:07 47.34969 -54.96786 25620 ft 357 kts 76°
2026-04-26 22:07 47.35261 -54.93150 25215 ft 356 kts 76°
2026-04-26 22:08 47.35551 -54.89530 24792 ft 355 kts 76°
2026-04-26 22:08 47.35839 -54.85909 24368 ft 355 kts 76°
2026-04-26 22:08 47.36126 -54.82302 23954 ft 354 kts 76°
2026-04-26 22:08 47.36410 -54.78706 23540 ft 352 kts 76°
2026-04-26 22:09 47.36692 -54.75125 23050 ft 351 kts 76°
2026-04-26 22:09 47.36972 -54.71563 22638 ft 348 kts 76°
2026-04-26 22:09 47.37248 -54.68035 22248 ft 345 kts 76°
2026-04-26 22:09 47.37519 -54.64538 21878 ft 341 kts 76°
2026-04-26 22:10 47.37787 -54.61081 21503 ft 338 kts 76°
2026-04-26 22:10 47.38052 -54.57655 21145 ft 335 kts 76°
2026-04-26 22:10 47.38313 -54.54259 20789 ft 332 kts 75°
2026-04-26 22:10 47.38572 -54.50894 20451 ft 329 kts 75°
2026-04-26 22:11 47.38831 -54.47512 20077 ft 334 kts 75°
2026-04-26 22:11 47.39093 -54.44077 19724 ft 338 kts 75°
2026-04-26 22:11 47.39355 -54.40626 19372 ft 339 kts 75°
2026-04-26 22:11 47.39613 -54.37218 19037 ft 338 kts 75°
2026-04-26 22:12 47.39873 -54.33779 18684 ft 336 kts 75°
2026-04-26 22:12 47.40130 -54.30349 18332 ft 335 kts 75°
2026-04-26 22:12 47.40385 -54.26940 17947 ft 333 kts 75°
2026-04-26 22:12 47.40637 -54.23562 17581 ft 329 kts 75°
2026-04-26 22:13 47.40884 -54.20221 17227 ft 326 kts 75°
2026-04-26 22:13 47.41129 -54.16911 16888 ft 322 kts 75°
2026-04-26 22:13 47.41370 -54.13637 16542 ft 319 kts 75°
2026-04-26 22:13 47.41653 -54.10403 16168 ft 316 kts 73°
2026-04-26 22:14 47.41982 -54.07215 15842 ft 312 kts 73°
2026-04-26 22:14 47.42303 -54.04065 15540 ft 308 kts 73°
2026-04-26 22:14 47.42620 -54.00942 15257 ft 308 kts 73°
2026-04-26 22:14 47.42936 -53.97817 15031 ft 314 kts 74°
2026-04-26 22:15 47.43259 -53.94605 14741 ft 317 kts 74°
2026-04-26 22:15 47.43582 -53.91384 14426 ft 317 kts 74°
2026-04-26 22:15 47.43902 -53.88175 14093 ft 315 kts 74°
2026-04-26 22:15 47.44220 -53.84988 13772 ft 312 kts 75°
2026-04-26 22:16 47.44534 -53.81827 13403 ft 310 kts 75°
2026-04-26 22:16 47.44845 -53.78693 13060 ft 306 kts 74°
2026-04-26 22:16 47.45151 -53.75597 12727 ft 303 kts 74°
2026-04-26 22:16 47.45454 -53.72529 12419 ft 300 kts 74°
2026-04-26 22:17 47.45751 -53.69497 12098 ft 297 kts 74°
2026-04-26 22:17 47.46047 -53.66488 11781 ft 293 kts 74°
2026-04-26 22:17 47.46336 -53.63523 11478 ft 290 kts 74°
2026-04-26 22:17 47.46625 -53.60559 11170 ft 293 kts 74°
2026-04-26 22:18 47.46918 -53.57549 10848 ft 298 kts 74°
2026-04-26 22:18 47.47211 -53.54520 10604 ft 295 kts 74°
2026-04-26 22:18 47.47497 -53.51558 10417 ft 288 kts 74°
2026-04-26 22:18 47.47775 -53.48664 10303 ft 278 kts 74°
2026-04-26 22:19 47.48042 -53.45889 10224 ft 267 kts 73°
2026-04-26 22:19 47.48295 -53.43246 10092 ft 261 kts 73°
2026-04-26 22:19 47.48555 -53.40550 9810 ft 269 kts 73°
2026-04-26 22:19 47.48818 -53.37786 9486 ft 273 kts 74°
2026-04-26 22:20 47.49083 -53.35001 9166 ft 274 kts 74°
2026-04-26 22:20 47.49258 -53.33151 8964 ft 274 kts 74°
2026-04-26 22:20 47.49610 -53.29432 8576 ft 272 kts 74°
2026-04-26 22:20 47.49870 -53.26672 8298 ft 270 kts 74°
2026-04-26 22:21 47.50129 -53.23926 7989 ft 268 kts 74°
2026-04-26 22:21 47.50385 -53.21203 7687 ft 266 kts 74°
2026-04-26 22:21 47.50637 -53.18509 7406 ft 263 kts 74°
2026-04-26 22:21 47.50885 -53.15848 7128 ft 260 kts 74°
2026-04-26 22:22 47.51131 -53.13209 6833 ft 258 kts 74°
2026-04-26 22:22 47.51375 -53.10594 6555 ft 255 kts 74°
2026-04-26 22:22 47.51615 -53.08005 6277 ft 253 kts 73°
2026-04-26 22:22 47.51852 -53.05436 5984 ft 251 kts 74°
2026-04-26 22:23 47.52085 -53.02898 5778 ft 245 kts 73°
2026-04-26 22:23 47.52310 -53.00445 5652 ft 236 kts 73°
2026-04-26 22:23 47.52527 -52.98082 5528 ft 228 kts 73°
2026-04-26 22:23 47.52735 -52.95815 5448 ft 217 kts 72°
2026-04-26 22:24 47.52938 -52.93612 5336 ft 216 kts 72°
2026-04-26 22:24 47.53138 -52.91435 5206 ft 216 kts 72°
2026-04-26 22:24 47.53340 -52.89238 5046 ft 215 kts 72°
2026-04-26 22:24 47.53381 -52.86998 4907 ft 228 kts 92°
2026-04-26 22:25 47.52887 -52.84723 4655 ft 234 kts 100°
2026-04-26 22:25 47.52334 -52.82449 4382 ft 235 kts 101°
2026-04-26 22:25 47.51775 -52.80179 4142 ft 234 kts 101°
2026-04-26 22:25 47.51215 -52.77922 3877 ft 233 kts 101°
2026-04-26 22:26 47.50656 -52.75680 3622 ft 231 kts 101°
2026-04-26 22:26 47.50238 -52.73438 3371 ft 219 kts 87°
2026-04-26 22:26 47.50297 -52.71289 3071 ft 201 kts 67°
2026-04-26 22:26 47.50807 -52.69471 2789 ft 181 kts 49°
2026-04-26 22:27 47.51539 -52.68137 2549 ft 158 kts 34°
2026-04-26 22:27 47.52401 -52.67205 2349 ft 151 kts 21°
2026-04-26 22:27 47.53335 -52.66672 2175 ft 140 kts
2026-04-26 22:27 47.54280 -52.66506 1995 ft 136 kts 356°
2026-04-26 22:28 47.55210 -52.66653 1807 ft 136 kts 346°
2026-04-26 22:28 47.56081 -52.67090 1582 ft 124 kts 335°
2026-04-26 22:28 47.56792 -52.67735 1477 ft 117 kts 327°
2026-04-26 22:28 47.57392 -52.68560 1315 ft 118 kts 321°
2026-04-26 22:29 47.58023 -52.69354 1214 ft 120 kts 323°
2026-04-26 22:29 47.58453 -52.69897 1006 ft 121 kts 324°
2026-04-26 22:29 47.59297 -52.70972 786 ft 121 kts 323°
2026-04-26 22:29 47.59718 -52.71515 692 ft 122 kts 323°
2026-04-26 22:30 47.60369 -52.72349 644 ft 129 kts 324°
2026-04-26 22:30 47.61055 -52.73226 491 ft 129 kts 323°
2026-04-26 22:30 47.61696 -52.74041 432 ft 104 kts 320°
2026-04-26 22:30 47.62029 -52.74468 448 ft 31 kts 319°
2026-04-26 22:31 47.62161 -52.74634 455 ft 12 kts 319°
2026-04-26 22:31 47.62205 -52.74688 454 ft 7 kts 328°
2026-04-26 22:31 47.62244 -52.74706 454 ft 4 kts 332°
2026-04-26 22:31 47.62251 -52.74747 454 ft 4 kts 249°
2026-04-26 22:32 47.62230 -52.74755 454 ft 4 kts 171°
2026-04-26 22:32 47.62202 -52.74705 454 ft 10 kts 121°
2026-04-26 22:32 47.62129 -52.74595 454 ft 18 kts 139°
2026-04-26 22:32 47.62025 -52.74462 448 ft 20 kts 139°
2026-04-26 22:33 47.61918 -52.74325 432 ft 21 kts 139°
2026-04-26 22:33 47.61729 -52.74083 437 ft 4 kts 143°
2026-04-26 22:33 47.61702 -52.74071 428 ft 4 kts 181°
2026-04-26 22:34 47.61680 -52.74083 434 ft 3 kts 212°
2026-04-26 22:34 47.61663 -52.74104 426 ft 6 kts 226°
2026-04-26 22:34 47.61628 -52.74166 444 ft 6 kts 229°
2026-04-26 22:34 47.61615 -52.74188 447 ft 3 kts 229°
2026-04-26 22:35 47.61561 -52.74280 448 ft 17 kts 229°
2026-04-26 22:35 47.61498 -52.74350 451 ft 9 kts 190°
2026-04-26 22:35 47.61445 -52.74369 451 ft 7 kts 202°
2026-04-26 22:35 47.61409 -52.74392 451 ft 1 kts 203°
2026-04-26 22:36 47.61406 -52.74394 451 ft 0 kts 204°